Location: Grand Lay
(47.3253°N, 0.9468°E)
Time: 21:49:47
(UTC+00:00)

Meteor 2-13 Rocket - Pass Details

Date: 18 January 2026
Orbit: 935 x 958 km, 82.5° (Epoch: 18 February)

Event Time Altitude Azimuth Distance (km) Brightness Sun altitude
Rises 04:47:19 0° 350° (N) 3,636 7.4 -28.2°
Reaches altitude 10° 04:49:49 10° 352° (N) 2,683 6.7 -27.8°
Maximum altitude 04:55:59 84° 80° (E) 956 4.4 -26.8°
Drops below altitude 10° 05:02:03 10° 170° (S) 2,649 6.9 -25.7°
Sets 05:04:31 0° 171° (S) 3,586 7.6 -25.3°
